Regional Weather Roundup
Issued by NWS Sioux Falls, SD

Home | Current Version | Previous Version | Text Only | Print | Product List | Glossary Off
Versions: 1 2 3 4 5 6 7 8 9 10 11 12 13 14 15 16 17 18 19 20 21 22 23 24 25 26 27 28 29 30 31 32 33 34 35 36 37 38 39 40 41 42 43 44 45 46 47 48 49 50

000
ASUS43 KFSD 291510
RWRFSD

WEATHER ROUNDUP FOR SE SOUTH DAKOTA/SW MINNESOTA/NW IOWA
NATIONAL WEATHER SERVICE SIOUX FALLS SD
1000 AM CDT SUN MAR 29 2015

NOTE: "FAIR" INDICATES FEW OR NO CLOUDS BELOW 12,000 FEET WITH NO
SIGNIFICANT WEATHER AND OR OBSTRUCTIONS TO VISIBILITY.


SDZ038>040-050-052>070-291600-
SOUTHEAST SOUTH DAKOTA

CITY           SKY/WX    TMP DP  RH WIND       PRES   REMARKS
CHAMBERLAIN    CLOUDY    45  33  64 NW32G41   30.04R
HURON          CLOUDY    44  36  73 NW31G47   29.93R
MADISON        CLOUDY    43  43 100 NW39G48   29.82R
MITCHELL       CLOUDY    46  37  71 NW33G45   29.93R
SIOUX FALLS    CLOUDY    47  39  74 NW35G46   29.82R
WINNER         CLOUDY    48  31  51 NW39G51   30.06R
YANKTON        CLOUDY   N/A N/A N/A NW40G48   29.89R
$$

MNZ071-072-080-081-089-090-097-098-291600-
SOUTHWEST MINNESOTA

CITY           SKY/WX    TMP DP  RH WIND       PRES   REMARKS
FAIRMONT       SUNNY     52  37  58 W29       29.68R
JACKSON        SUNNY     50  37  62 W23G41    29.70S
LUVERNE        CLOUDY    50  39  66 NW26G37   29.78R
MARSHALL       CLOUDY    43  36  75 NW32G49   29.73R
MONTEVIDEO     LGT RAIN  43  39  87 N21G37    29.72R
PIPESTONE      DRIZZLE   46  39  76 NW24G37   29.76R
REDWOOD FALLS  CLOUDY    48  40  73 W29G40    29.65R
TRACY          CLOUDY    47  39  72 NW35G45   29.73R
WINDOM         PTSUNNY   52  37  58 W28G40    29.69R
WORTHINGTON    PTSUNNY   52  37  58 W33G43    29.74R
$$

IAZ001>003-012>014-020>022-031-032-NEZ013-014-SDZ071-291600-
NORTHWEST IOWA

CITY           SKY/WX    TMP DP  RH WIND       PRES   REMARKS
CHEROKEE       SUNNY     53  39  57 W24G36    29.80R
DENISON        MOSUNNY   48  39  71 W14       29.84R
ESTHERVILLE    SUNNY     51  40  65 W28G38    29.72R
LE MARS        PTSUNNY   52  39  62 NW23G39   29.85R
ORANGE CITY    PTSUNNY   54  39  58 NW38G44   29.80R
SHELDON        MOSUNNY   52  39  62 NW28G40   29.77R
SIOUX CITY     LGT RAIN  55  36  48 NW32G53   29.84R
SPENCER        MOSUNNY   54  38  54 W31G37    29.75R
STORM LAKE     SUNNY     52  39  62 W26G35    29.79S
$$

ABBREVIATIONS USED IN REMARKS
   TC - TEMPERATURE IN CELSIUS
  WCI - WIND CHILL INDEX
   HX - HEAT INDEX
  VSB - VISIBILITY



USA.gov is the U.S. government's official web portal to all federal, state and local government web resources and services.